Time (yr/mo/day/hr) Wind Speed at 50 metres (Glencore Tower; km/hr) Wind Direction at 50 metres (Glencore Tower; degrees) Temperature (oC) SO2 Dispersion Conditions Mixing Height (m)
2021 01 24 07 4 122 -16 Stable 55
2021 01 24 08 7 113 -16 Stable 75
2021 01 24 09 8 112 -16 Neutral 144
2021 01 24 10 6 102 -16 Slightly unstable 283
2021 01 24 11 6 109 -15 Moderately unstable 287
2021 01 24 12 7 111 -14 Slightly unstable 326
2021 01 24 13 7 119 -13 Slightly unstable 356
2021 01 24 14 7 123 -12 Slightly unstable 369
2021 01 24 15 7 122 -12 Slightly unstable 375
2021 01 24 16 7 117 -12 Neutral 360
2021 01 24 17 7 116 -12 Neutral 137
2021 01 24 18 8 102 -12 Slightly stable 219
2021 01 24 19 7 108 -12 Slightly stable 119
2021 01 24 20 7 111 -12 Slightly stable 96
2021 01 24 21 7 115 -12 Slightly stable 103
2021 01 24 22 7 111 -12 Slightly stable 142
2021 01 24 23 8 105 -12 Slightly stable 177
2021 01 25 00 7 113 -12 Stable 101
2021 01 25 01 5 125 -12 Stable 61
2021 01 25 02 3 125 -12 Stable 50
2021 01 25 03 1 91 -12 Stable 50
2021 01 25 04 0 353 -12 Stable 50
2021 01 25 05 1 272 -12 Stable 50
2021 01 25 06 4 273 -12 Stable 54
2021 01 25 07 7 284 -12 Stable 103